Tehachapi, CA

6:47 PM PST on February 26, 2017 (GMT -0800)
Tehachapi Municipal

Weather History for KTSP - November, 2014

Change the Weather History Date:

Tuesday, November 4, 2014

  Actual Average Record
Temperature  
Mean Temperature 48 °F -  
Max Temperature 64 °F 66 °F 75 °F (2012)
Min Temperature 32 °F 37 °F 28 °F (2013)
Degree Days  
Heating Degree Days 17    
Moisture  
Dew Point 23 °F    
Average Humidity 47    
Maximum Humidity 93    
Minimum Humidity 14    
Precipitation  
Precipitation 0.00 in - - ()
Sea Level Pressure  
Sea Level Pressure 30.30 in    
Wind  
Wind Speed 6 mph (ESE)    
Max Wind Speed 15 mph    
Max Gust Speed 20 mph    
Visibility 10 miles    
Events Rain    
Averages and records for this station are not official NWS values.
T = Trace of Precipitation, MM = Missing Value Source: NWS Daily Summary

Daily Weather History Graph

Daily Weather History Graph

Search for Another Location

Airport or City:

Trip Planner

Search our weather history database for the weather conditions in past years. The results will help you decide how hot, cold, wet, or windy it might be!

Date:

Astronomy

Nov. 04, 2014 Rise Set
Actual Time 6:17 AM PST 4:56 PM PST
Civil Twilight 5:51 AM PST 5:22 PM PST
Nautical Twilight 5:21 AM PST 5:52 PM PST
Astronomical Twilight 4:51 AM PST 6:22 PM PST
Moon 3:41 PM PST (11/4) 3:47 AM PST (11/4)
Length of Visible Light 11h 31m
Length of Day
10h 38m
Waxing Gibbous, 94% of the Moon is Illuminated
Nov 4
Waxing Gibbous
Nov 6
Full
Nov 14
Last Quarter
Nov 22
New
Nov 29
First Quarter

Hourly Weather History & Observations

Time (PST) Temp. Windchill Dew Point Humidity Pressure Visibility Wind Dir Wind Speed Gust Speed Precip Events Conditions
12:15 AM 32.0 °F 26.4 °F 30.2 °F 93% 30.28 in 10.0 mi ESE 5.8 mph - N/A   Clear
12:35 AM 32.0 °F 24.8 °F 30.2 °F 93% 30.28 in 10.0 mi SE 8.1 mph - N/A   Clear
12:55 AM 32.0 °F 28.7 °F 28.4 °F 87% 30.29 in 10.0 mi ESE 3.5 mph - N/A   Clear
1:15 AM 32.0 °F 26.4 °F 28.4 °F 87% 30.29 in 10.0 mi ESE 5.8 mph - N/A   Clear
1:35 AM 32.0 °F 25.6 °F 28.4 °F 87% 30.28 in 10.0 mi SE 6.9 mph - N/A   Clear
1:55 AM 32.0 °F - 26.6 °F 80% 30.28 in 10.0 mi Calm Calm - N/A   Clear
2:15 AM 33.8 °F - 26.6 °F 75% 30.28 in 10.0 mi Calm Calm - N/A   Clear
2:35 AM 32.0 °F 27.5 °F 26.6 °F 80% 30.28 in 10.0 mi SE 4.6 mph - N/A   Clear
3:15 AM 32.0 °F 24.8 °F 26.6 °F 80% 30.27 in 10.0 mi SE 8.1 mph - N/A   Clear
3:35 AM 33.8 °F 27.0 °F 24.8 °F 70% 30.27 in 10.0 mi ESE 8.1 mph - N/A   Clear
3:55 AM 33.8 °F 27.0 °F 24.8 °F 70% 30.28 in 10.0 mi ESE 8.1 mph - N/A   Clear
4:15 AM 33.8 °F 27.7 °F 24.8 °F 70% 30.28 in 10.0 mi SE 6.9 mph - N/A   Clear
4:35 AM 32.0 °F 25.6 °F 24.8 °F 75% 30.29 in 10.0 mi SE 6.9 mph - N/A   Clear
4:55 AM 33.8 °F 27.7 °F 23.0 °F 65% 30.29 in 10.0 mi ESE 6.9 mph - N/A   Clear
5:15 AM 35.6 °F 29.9 °F 23.0 °F 60% 30.29 in 10.0 mi ESE 6.9 mph - N/A   Clear
5:35 AM 35.6 °F 29.9 °F 23.0 °F 60% 30.29 in 10.0 mi ESE 6.9 mph - N/A   Clear
5:55 AM 33.8 °F 27.0 °F 23.0 °F 65% 30.30 in 10.0 mi ESE 8.1 mph - N/A   Clear
6:15 AM 35.6 °F 29.2 °F 23.0 °F 60% 30.30 in 10.0 mi East 8.1 mph - N/A   Clear
6:35 AM 35.6 °F 29.2 °F 23.0 °F 60% 30.30 in 10.0 mi ESE 8.1 mph - N/A   Clear
6:55 AM 37.4 °F 32.1 °F 23.0 °F 56% 30.31 in 10.0 mi ESE 6.9 mph - N/A   Clear
7:15 AM 39.2 °F 35.9 °F 24.8 °F 56% 30.32 in 10.0 mi ESE 4.6 mph - N/A   Clear
7:35 AM 44.6 °F 40.7 °F 19.4 °F 37% 30.33 in 10.0 mi East 6.9 mph - N/A   Clear
7:55 AM 48.2 °F - 19.4 °F 32% 30.34 in 10.0 mi East 9.2 mph - N/A   Clear
8:15 AM 50.0 °F - 21.2 °F 32% 30.34 in 10.0 mi East 8.1 mph - N/A   Clear
8:35 AM 51.8 °F - 21.2 °F 30% 30.34 in 10.0 mi ESE 11.5 mph - N/A   Clear
8:55 AM 53.6 °F - 19.4 °F 26% 30.34 in 10.0 mi ESE 12.7 mph 18.4 mph N/A   Clear
9:15 AM 55.4 °F - 17.6 °F 23% 30.35 in 10.0 mi ESE 12.7 mph - N/A Rain Light Rain
9:35 AM 55.4 °F - 17.6 °F 23% 30.35 in 10.0 mi ESE 12.7 mph - N/A   Clear
9:55 AM 57.2 °F - 17.6 °F 21% 30.35 in 10.0 mi ESE 11.5 mph - N/A   Clear
10:15 AM 57.2 °F - 17.6 °F 21% 30.35 in 10.0 mi SE 11.5 mph 17.3 mph N/A   Clear
10:35 AM 59.0 °F - 17.6 °F 20% 30.35 in 8.0 mi ESE 10.4 mph - N/A   Clear
10:55 AM 59.0 °F - 17.6 °F 20% 30.34 in 10.0 mi SE 15.0 mph 19.6 mph N/A   Clear
11:15 AM 59.0 °F - 15.8 °F 19% 30.34 in 10.0 mi SE 10.4 mph - N/A   Clear
11:35 AM 60.8 °F - 15.8 °F 17% 30.33 in 10.0 mi SE 9.2 mph 16.1 mph N/A   Clear
11:55 AM 62.6 °F - 15.8 °F 16% 30.32 in 10.0 mi SE 12.7 mph - N/A   Clear
12:15 PM 62.6 °F - 14.0 °F 15% 30.31 in 9.0 mi ESE 9.2 mph - N/A   Clear
12:35 PM 62.6 °F - 14.0 °F 15% 30.30 in 8.0 mi SE 6.9 mph - N/A   Clear
12:55 PM 62.6 °F - 14.0 °F 15% 30.30 in 10.0 mi ESE 9.2 mph - N/A   Clear
1:15 PM 62.6 °F - 14.0 °F 15% 30.29 in 10.0 mi SE 8.1 mph - N/A   Clear
1:35 PM 62.6 °F - 15.8 °F 16% 30.28 in 10.0 mi SE 9.2 mph - N/A   Clear
1:55 PM 62.6 °F - 14.0 °F 15% 30.28 in 10.0 mi ESE 10.4 mph 17.3 mph N/A   Clear
2:15 PM 64.4 °F - 15.8 °F 15% 30.27 in 10.0 mi ESE 12.7 mph - N/A Rain Light Rain
2:35 PM 64.4 °F - 14.0 °F 14% 30.27 in 10.0 mi SE 11.5 mph - N/A   Clear
2:55 PM 62.6 °F - 15.8 °F 16% 30.27 in 10.0 mi SSE 10.4 mph - N/A   Clear
3:15 PM 62.6 °F - 14.0 °F 15% 30.27 in 10.0 mi SSE 11.5 mph - N/A   Clear
3:35 PM 62.6 °F - 14.0 °F 15% 30.27 in 10.0 mi SSE 6.9 mph - N/A   Clear
3:55 PM 60.8 °F - 14.0 °F 16% 30.27 in 10.0 mi SE 9.2 mph - N/A   Clear
4:15 PM 60.8 °F - 10.4 °F 14% 30.28 in 10.0 mi ESE 6.9 mph - N/A   Clear
4:35 PM 59.0 °F - 10.4 °F 15% 30.28 in 10.0 mi ESE 6.9 mph - N/A   Clear
4:55 PM 57.2 °F - 12.2 °F 17% 30.28 in 10.0 mi ESE 4.6 mph - N/A   Clear
5:15 PM 53.6 °F - 26.6 °F 35% 30.28 in 10.0 mi Calm Calm - N/A   Clear
5:35 PM 50.0 °F - 35.6 °F 58% 30.28 in 10.0 mi SSW 3.5 mph - N/A   Clear
5:55 PM 48.2 °F - 33.8 °F 58% 30.29 in 8.0 mi Calm Calm - N/A   Clear
6:15 PM 46.4 °F - 33.8 °F 62% 30.29 in 9.0 mi Calm Calm - N/A   Clear
6:35 PM 46.4 °F - 32.0 °F 57% 30.30 in 9.0 mi Calm Calm - N/A   Clear
6:55 PM 44.6 °F - 32.0 °F 61% 30.30 in 10.0 mi Calm Calm - N/A   Partly Cloudy
7:15 PM 44.6 °F - 32.0 °F 61% 30.31 in 10.0 mi Calm Calm - N/A   Clear
7:35 PM 42.8 °F - 32.0 °F 66% 30.32 in 9.0 mi Calm Calm - N/A   Clear
7:55 PM 41.0 °F - 32.0 °F 70% 30.33 in 9.0 mi Calm Calm - N/A   Clear
8:15 PM 39.2 °F - 32.0 °F 75% 30.33 in 10.0 mi Calm Calm - N/A   Clear
8:35 PM 41.0 °F - 32.0 °F 70% 30.33 in 10.0 mi Calm Calm - N/A   Clear
8:55 PM 41.0 °F - 30.2 °F 65% 30.33 in 10.0 mi Calm Calm - N/A   Clear
9:15 PM 41.0 °F 38.0 °F 28.4 °F 61% 30.33 in 10.0 mi SE 4.6 mph - N/A   Clear
9:35 PM 39.2 °F 35.0 °F 26.6 °F 61% 30.33 in 10.0 mi ESE 5.8 mph - N/A   Clear
9:55 PM 39.2 °F - 24.8 °F 56% 30.33 in 10.0 mi Calm Calm - N/A   Clear
10:15 PM 41.0 °F - 24.8 °F 53% 30.33 in 10.0 mi Calm Calm - N/A   Clear
10:35 PM 39.2 °F - 24.8 °F 56% 30.32 in 10.0 mi Calm Calm - N/A   Clear
10:55 PM 37.4 °F 33.8 °F 28.4 °F 70% 30.31 in 10.0 mi East 4.6 mph - N/A   Clear
11:15 PM 39.2 °F 37.0 °F 26.6 °F 61% 30.31 in 10.0 mi ENE 3.5 mph - N/A   Clear
11:35 PM 39.2 °F 37.0 °F 24.8 °F 56% 30.30 in 10.0 mi East 3.5 mph - N/A   Clear
11:55 PM 39.2 °F - 23.0 °F 52% 30.30 in 10.0 mi Calm Calm - N/A   Clear